Location: Alladorf
(49.9620°N, 11.3790°E)
Time: 19:53:34
(UTC+00:00)

Cosmos 2227 Rocket - Pass Details

Date: 29 November 2020
Orbit: 837 x 847 km, 71.0° (Epoch: 25 January)

Event Time Altitude Azimuth Distance (km) Brightness Sun altitude
Exits shadow 03:57:59 17° 354° (N) 2,038 4.1 -26.6°
Drops below altitude 10° 03:59:51 10° 11° (N) 2,470 4.7 -26.3°
Sets 04:02:55 0° 27° (NNE) 3,410 5.7 -25.8°
